Regional Weather Roundup
Issued by NWS

Home | Current Version | Previous Version | Text Only | Print | Product List | Glossary Off
Versions: 1 2 3 4 5 6 7 8 9 10 11 12 13 14 15 16 17 18 19 20 21 22 23 24 25 26 27 28 29 30 31 32 33 34 35 36 37 38 39 40 41 42 43 44 45 46 47 48 49 50

000
ASUS43 KMKX 161100
RWRWI

WISCONSIN REGIONAL WEATHER ROUNDUP
NATIONAL WEATHER SERVICE MILWAUKEE/SULLIVAN WI
600 AM CDT WED AUG 16 2017

NOTE: "FAIR" INDICATES FEW OR NO CLOUDS BELOW 12,000 FEET WITH NO
SIGNIFICANT WEATHER AND/OR OBSTRUCTIONS TO VISIBILITY.

WIZ001-002-006>008-014>016-023>028-161200-
NORTHWEST WISCONSIN

CITY           SKY/WX    TMP DP  RH WIND       PRES   REMARKS
SUPERIOR ARPT    N/A     61  59  92 NE7       30.01S
ASHLAND        CLOUDY    50  49  96 CALM      30.03S FOG
HAYWARD        CLOUDY    59  55  87 SE5       30.02F
SIREN          CLOUDY    62  57  84 SE5       29.98S
CUMBERLAND     CLOUDY    59  55  88 SE3       30.00S
RICE LAKE      CLOUDY    60  58  91 E5        30.01F
CHETEK         CLOUDY    61  58  92 SE5       30.01S
LADYSMITH      PTCLDY    57  56  94 E5        30.05R
EAU CLAIRE     NOT AVBL
MENOMONIE      DRIZZLE   61  60  99 E6        29.99F
NEW RICHMOND   RAIN      61  60  97 E7        29.97S
OSCEOLA        LGT RAIN  62  62 100 E5        29.99F
$$

WIZ003>005-009-010-017-018-161200-
NORTH CENTRAL WISCONSIN

CITY           SKY/WX    TMP DP  RH WIND       PRES   REMARKS
MANITOWISH WTR CLOUDY    56  56 100 SE5       30.06R FOG
ARBOR VITAE    CLOUDY    58  57  96 SE5       30.06S FOG
WOODRUFF       CLOUDY    58  57  96 SE5       30.06S FOG
RHINELANDER    FOG       57  57 100 SE5       30.08R VSB 1
EAGLE RIVER    MOCLDY    56  54  93 SE3       30.07R
LAND O LAKES   CLOUDY    53  53 100 CALM      30.10R
PHILLIPS       CLOUDY    54  54 100 E5        30.05R
TOMAHAWK         N/A     54  53  97 CALM      30.07R FOG
MEDFORD        CLOUDY    57  56  97 CALM      30.05R FOG
MERRILL        NOT AVBL
$$

WIZ029-030-035-036-043>047-161200-
CENTRAL WISCONSIN

CITY           SKY/WX    TMP DP  RH WIND       PRES   REMARKS
WAUSAU         CLOUDY    57  57 100 E6        30.05S FOG
MOSINEE        NOT AVBL
MARSHFIELD     CLOUDY    61  57  87 E5        30.04R
STEVENS POINT  CLOUDY    57  57 100 CALM      30.06R
WAUPACA        CLOUDY    62  62  98 CALM      30.05S
WAUTOMA        CLOUDY    60  59  96 NE3       30.05R
WISC RAPIDS    CLOUDY    61  59  93 E3        30.06R
CAMP DOUGLAS   NOT AVBL
$$

WIZ011>013-019>022-031-037>040-048>050-161200-
NORTHEAST WISCONSIN

CITY           SKY/WX    TMP DP  RH WIND       PRES   REMARKS
ANTIGO         MOCLDY    56  56 100 SE6       30.08S
SHAWANO        CLOUDY    63  60  90 NE7       30.06S
OCONTO         CLOUDY    57  56  97 NE5       30.06S
STURGEON BAY   CLOUDY    61  60  97 CALM      30.07R
GREEN BAY      CLOUDY    63  63 100 E5        30.05S
MANITOWOC      CLOUDY    57  55  94 NW3       30.05S FOG
APPLETON       PTCLDY    63  61  94 E6        30.04S
CLINTONVILLE   CLOUDY    59  59 100 NE3       30.05F
OSHKOSH        MOCLDY    63  60  90 CALM      30.04S
$$

WIZ032>034-041-042-053>061-161200-
SOUTHWEST WISCONSIN

CITY           SKY/WX    TMP DP  RH WIND       PRES   REMARKS
LA CROSSE      CLOUDY    67  61  81 SE7       29.98S
SPARTA         CLOUDY    63  59  87 CALM      30.01S
VIROQUA        CLOUDY    62  60  92 E9        30.01R
BOSCOBEL       CLOUDY    64  60  87 NE3       30.00R
PRAIRIE DU CHI MOCLDY    64  58  80 CALM      29.97S
PLATTEVILLE    CLOUDY    62  62  97 E9        30.00R
$$

WIZ056-057-062-063-064-067-068-161200-
SOUTH CENTRAL WISCONSIN

CITY           SKY/WX    TMP DP  RH WIND       PRES   REMARKS
REEDSBURG      CLOUDY    63  61  94 NE3       30.02S
BARABOO/DELLS  CLOUDY    62  58  86 NE3       30.02S
LONE ROCK      CLOUDY    63  61  93 SE6       30.00S
MINERAL POINT  CLOUDY    64  59  82 E8        30.00S
MADISON        CLOUDY    62  60  93 E3        30.02R
MIDDLETON      CLOUDY    64  62  93 E3        30.02S
WATERTOWN      CLOUDY    58  58 100 CALM      30.02S
MONROE         MOCLDY    61  59  94 E6        30.00S
JANESVILLE     CLEAR     61  61 100 NE5       30.01S
$$

WIZ051-052-058>065-066-070>072-161200-
SOUTHEAST WISCONSIN

CITY           SKY/WX    TMP DP  RH WIND       PRES   REMARKS
MILWAUKEE      PTCLDY    63  59  87 NW5       30.03R
WAUKESHA       PTCLDY    55  55 100 CALM      30.04R
MILWAUKEE/TIMM CLEAR     59  55  88 CALM      30.04R
RACINE         CLEAR     60  58  92 CALM      30.04R
KENOSHA        PTCLDY    61  58  90 CALM      30.03R
FOND DU LAC    CLOUDY    61  57  87 E3        30.04S
SHEBOYGAN      CLEAR     56  56 100 CALM      30.04S
WEST BEND      FOG       54  54 100 CALM      30.04S VSB 1/2
JUNEAU         PTCLDY    58  57  97 NE3       30.04F
$$

LSZ147-162-161200-
LAKE SUPERIOR

STATION/POSITION TIME  TEMP    WIND        PRES    WAVE
                       AIR SEA DIR/SP/G            HT/PER
                 (UTC) (F)     (DEG/KT/KT) (MB)    (FT/S)
W MID LAKE BUOY  0950   60 60  120/  8/ 10 1017.2F   1/ 4
DEVILS ISLAND    1000   62     100/ 10/ 11 1016.7F
SAXON HARBOR     1040   52     190/  4/  5 1016.6R
$$

LMZ867-665-643>646-161200-
LAKE MICHIGAN

STATION/POSITION TIME  TEMP    WIND        PRES    WAVE
                       AIR SEA DIR/SP/G            HT/PER
                 (UTC) (F)     (DEG/KT/KT) (MB)    (FT/S)
S GREEN BAY BUOY 1030   66 72   70/  8/ 10 1017.5R
N MID LAKE BUOY  0950   65 67   60/  8/ 10 1018.0S   1/ 3
NORTHPORT PIER   1040   63      30/  6/  9 1017.9R
KEWAUNEE LAKESHO 1030   65      40/  3/  6 1016.7R
SHEBOYGAN LAKESH 1000   67      50/  6/  6 1016.7R
PORT WASHINGTON  1030   63     340/  3/  6 1017.6R
ATWATER BUOY     0909   69 71   40/  6/  8 1016.6R
MILWAUKEE LAKESH 1040   65     330/  4/  5   N/A
S MID LAKE BUOY  0950   70 71   50/  6/  6 1015.9R   1/ 4
KENOSHA   LAKESH 1000   69      40/  5/  6 1015.9
$$

TC  - TEMPERATURE IN CELSIUS
VSB - VISIBILITY IN STATUTE MILES
WCI - WIND CHILL INDEX
HX  - HEAT INDEX





USA.gov is the U.S. government's official web portal to all federal, state and local government web resources and services.